www.pogodaiklimat.ru
ПОГОДА в Крествью
Время
и дата
03:00 23.05
03:04 23.05
03:38 23.05
03:40 23.05
03:48 23.05
03:52 23.05
03:56 23.05
03:58 23.05
03:59 23.05
04:11 23.05
04:22 23.05
04:26 23.05
04:28 23.05
04:46 23.05
04:50 23.05
04:53 23.05
04:54 23.05
04:56 23.05
04:58 23.05
05:04 23.05
05:10 23.05
05:14 23.05
05:21 23.05
05:44 23.05
05:56 23.05
06:56 23.05
07:37 23.05
07:56 23.05
08:24 23.05
08:35 23.05
08:56 23.05
09:05 23.05
09:14 23.05
09:56 23.05
10:56 23.05
11:56 23.05
12:20 23.05
12:29 23.05
12:35 23.05
12:38 23.05
12:48 23.05
12:56 23.05
13:56 23.05
14:56 23.05
15:04 23.05
15:56 23.05
16:56 23.05
17:56 23.05
Ветер
(напр.,м/с)
Видим. Явления Облачность Т
(С)
Тd
(С)
f
(%)
Тe
(С)
Тes
(С)
Комфортность P
(гПа)
Po
(гПа)
Тmin
(С)
Tmax
(С)
R
(мм)
R24
(мм)
S
(см)
ЮЗ 3 16 км 8/8 30 м
[Ac]
+24.0 +22.0 89 +31 +31 очень
душно
1016.2 1009.0
ЮЗ 3 16 км 8/5 30 м
[Ac]
+24.0 +22.0 89 +31 +31 очень
душно
1015.8 1008.7
ЮЗ 2 16 км 8/8 м
[Ac]
+24.0 +22.0 89 +31 +31 очень
душно
1016.5 1009.4
ЮЗ 2 16 км слабый дождь 8/8 300 м
[Ac]
+24.0 +22.0 89 +31 +31 очень
душно
1016.5 1009.4
ЮЗ 3 14 км слабый дождь 10/8 240 м
[Ac]
+24.0 +22.0 89 +31 +31 очень
душно
1016.5 1009.4
ЮЗ 2
{3}
14 км слабый дождь 10/8 300 м
[Ac]
+24.0 +22.0 89 +31 +31 очень
душно
1016.5 1009.4
ЮЗ 2
{3}
16 км слабый дождь 8/8 300 м
[Ac]
+23.5 +21.9 91 +30 +30 очень
душно
1016.5 1009.4 33.3
ЮЗ 2 16 км слабый дождь 8/8 300 м +23.0 +22.0 94 +31 +31 очень
душно
1016.5 1009.4
ЮЗ 2 16 км 8/8 300 м +23.0 +22.0 94 +31 +31 очень
душно
1016.5 1009.4
ЮЗ 2 16 км 8/8 360 м +23.0 +22.0 94 +31 +31 очень
душно
1016.5 1009.4
ЮЗ 2 16 км слабый дождь 8/5 360 м
[Ac]
+23.0 +22.0 94 +31 +31 очень
душно
1016.5 1009.4
ЮЗ 1 16 км 8/8 510 м
[Ac]
+23.0 +22.0 94 +31 +31 очень
душно
1016.9 1009.7
ЮЗ 1 16 км 8/5 600 м
[Ac]
+23.0 +22.0 94 +31 +31 очень
душно
1016.5 1009.4
ЮЗ 1 16 км 8/8 510 м
[Ac]
+23.0 +22.0 94 +31 +31 очень
душно
1016.9 1009.7
ЮЗ 1 16 км 8/8 м
[Ac]
+23.0 +22.0 94 +31 +31 очень
душно
1016.9 1009.7
ЮЗ 1 16 км слабый дождь 8/8 390 м
[Ac]
+23.0 +22.0 94 +31 +31 очень
душно
1016.9 1009.7
ЮЗ 1 14 км слабый дождь 8/8 60 м
[Ac]
+23.0 +22.0 94 +31 +31 очень
душно
1016.9 1009.7
ЮЗ 1 14 км слабый дождь 8/8 60 м
[Ac]
+22.9 +21.9 94 +31 +31 очень
душно
1016.9 1009.7
ЮЗ 1 14 км дождь 10/8 60 м
[Ac]
+23.0 +22.0 94 +31 +31 очень
душно
1016.9 1009.7
ЮЗ 1 14 км слабый дождь 10/8 60 м
[Ac]
+23.0 +22.0 94 +31 +31 очень
душно
1016.9 1009.7
З 1 16 км слабый дождь 8/8 210 м
[Ac]
+23.0 +22.0 94 +31 +31 очень
душно
1016.9 1009.7
З 1 16 км слабый дождь 8/5 180 м
[Ac]
+23.0 +22.0 94 +31 +31 очень
душно
1016.9 1009.7
З 1 16 км 8/5 210 м
[Ac]
+23.0 +22.0 94 +31 +31 очень
душно
1016.9 1009.7
З 1 16 км 5/2 120 м
[Ac]
+22.0 +21.0 94 +28 +28 душно 1016.9 1009.7
З 1 16 км 5/2 120 м
[Ac]
+22.2 +21.3 95 +29 +29 очень
душно
1017.2 1010.1
штиль 0 16 км 2/2 180 м
[Ac]
+21.8 +20.9 95 +28 +28 душно 1017.9 1010.7 +21.8 +24.2 33.8 70.6
штиль 0 16 км слабый дождь 5/0 2100 м
[Ac]
+22.0 +21.0 94 +28 +29 душно 1018.2 1011.1
штиль 0 16 км слабый дождь 8/8 1800 м
[Ac]
+22.1 +20.9 93 +29 +29 очень
душно
1018.2 1011.1
СЗ 1 16 км 5/5 1650 м +22.0 +21.0 94 +28 +30 душно 1017.9 1010.7
СЗ 1 16 км 5/5 120 м
[Ac Ci]
+22.0 +21.0 94 +28 +30 душно 1018.2 1011.1
штиль 0 16 км 8/2 150 м
[Ac]
+22.3 +21.1 93 +29 +32 очень
душно
1018.2 1011.1
штиль 0 16 км слабый дождь 8/5 150 м
[Ac]
+22.0 +21.0 94 +28 +32 душно 1018.2 1011.1
штиль 0 16 км 8/0 3600 м
[Ac]
+22.0 +21.0 94 +28 +34 душно 1018.2 1011.1
Ю 1 16 км 2/0 4200 м
[Ac]
+23.4 +21.6 90 +32 +39 очень
душно
1018.6 1011.4 0.5
ЮЗ 1 16 км 8/0 3600 м
[Ac]
+24.4 +21.9 86 +31 +37 очень
душно
1018.9 1011.7
ЮЗ 1 16 км 8/0 3000 м
[Ac]
+24.8 +21.9 84 +32 +40 очень
душно
1018.9 1011.7
ЮЗ 2 16 км слабый дождь 10/2 810 м
[Ac]
+25.0 +22.0 83 +32 +37 очень
душно
1019.2 1012.1
ЮЗ 7
{8}
16 км слабый дождь, шквал 8/5 390 м
[Ac]
+25.0 +22.0 83 +32 +32 очень
душно
1019.6 1012.4
ЮЗ 5
{8}
16 км слабый дождь, шквал 10/8 330 м
[Ac]
+23.0 +19.0 78 +29 +29 очень
душно
1019.9 1012.7
ЮЗ 4
{8}
16 км шквал 10/8 330 м
[Ac]
+22.0 +19.0 83 +27 +27 душно 1019.9 1012.7
ЮЗ 5
{6}
16 км слабый дождь 10/8 360 м
[Ac]
+21.0 +19.0 88 +25 +25 комфорт 1019.9 1012.7
ЮЗ 3
{6}
16 км слабый дождь 8/8 360 м +20.8 +18.7 88 +25 +26 комфорт 1020.3 1013.1 +20.8 +25.0 0.5
З 1 16 км слабый дождь 8/0 2100 м
[Ac]
+21.2 +19.5 90 +26 +35 душно 1019.6 1012.4
СВ 1 16 км слабый дождь 8/0 2700 м
[Ac]
+21.4 +19.7 90 +26 +34 душно 1016.9 1009.7
СВ 1 16 км 8/0 2700 м
[Ac]
+21.0 +20.0 94 +27 +34 душно 1016.5 1009.4
В 1 16 км 8/0 4800 м
[Ac]
+23.7 +20.4 82 +29 +37 душно 1015.1 1008.0 3.3
ЮВ 1 16 км ясно +24.7 +19.7 74 +30 +40 очень
душно
1015.5 1008.4
Ю 1 16 км 2/0 3300 м
[Ac]
+24.5 +20.0 76 +30 +36 очень
душно
1016.2 1009.0
Местоположение метеостанции Duke Field Airport: широта 30.6500 долгота -86.5167 высота над уровнем моря 59 м.
В архиве по умолчанию представлена погода в Крествью за последние 1-2 суток. Обновление информации о фактической погоде в базе происходит ежечасно! Архивные данные за месяц целиком и за предыдущие месяцы Вы можете получить, выбрав интересующий диапазон дат из раскрывающегося списка и нажав кнопку "Ввод!".
Внимание! Архив погоды МЕТАР в базе сайта по станциям, не включенным в климатический монитор, хранится не более 60 дней. Нет смысла пытаться выбрать более раннюю дату.
*Определитесь, кто Вы:
Внимание! Время в таблицах - местное (без учета летнего времени). Для получения всемирного времени необходимо вычесть поправку, которая равна -5 ч.
Смотрите также архив погоды в соседних городах и на ближайших метеорологических станциях:
Партнеры нашего сайта:      
Пояснения к столбцам:
  • Ветер - указаны скорость ветра в м/с - средняя за 10 мин, порывы в срок и между сроками (в фигурных скобках) и направление, откуда дует ветер: С - северный,
  • СВ - северо-восточный, В - восточный, ЮВ - юго-восточный, Ю - южный, ЮЗ - юго-западный, З - западный, СЗ - северо-западный.
  • Видимость - горизонтальная дальность видимости в метрах или километрах. При видимости от 1 до 10 км при отсутствии осадков обычно наблюдается дымка, при ухудшении видимости до 1 км и менее - туман. В сухую погоду видимость может ухудшаться дымом, пылью или мглою.
  • Явления - указаны атмосферные явления, наблюдавшиеся в срок или в последний час перед сроком; фигурными скобками обозначены явления, наблюдавшиеся между сроками (за 1-3 часа до срока); квадратными скобками обозначены град или гололедные отложения с указанием их диаметра в мм.
  • Облачность - указаны через наклонную черту общая и нижняя облачность в баллах и высота нижней границы облаков в метрах; квадратными скобками обозначены формы облаков: Ci - перистые, Cs - перисто-слоистые, Cc - перисто-кучевые, Ac - высококучевые, As - высокослоистые, Sc - слоисто-кучевые, Ns - слоисто-дождевые, Cu - кучевые, Cb - кучево-дождевые. Подробнее классификацию облаков см. в Атласе облаков (PDF).
  • T - Температура воздуха - температура, измеренная на высоте 2 м над землей.
  • Td - Температура точки росы - температура, при понижении до которой содержащийся в воздухе водяной пар достигнет насыщения.
  • f - Относительная влажность воздуха - влажноcть воздуха, измеренная на высоте 2 м над землей.
  • Te - Эффективная температура - температура, которую ощущает одетый по сезону человек в тени. Характеристика душности погоды. При расчете учитывается влияние влажности воздуха и скорости ветра на теплоощущения человека.
  • Tes - Эффективная температура на солнце - температура, которую ощущает человек, с поправкой на солнечный нагрев. Характеристика знойности погоды. Зависит от высоты солнца над горизонтом, облачности и скорости ветра. Ночью, в пасмурную погоду, а также при ветре 12 м/с и более поправка равна нулю.
  • P - Атмосферное давление - приведенное к уровню моря атмосферное давление.
  • Po - Атмосферное давление - измеренное на уровне метеостанции атмосферное давление.
  • Tmin - Минимальная температура - минимум температуры воздуха на высоте 2 м над землей.
  • Tmax - Максимальная температура - максимум температуры воздуха на высоте 2 м над землей.
  • R - Количество осадков - Количество выпавших осадков за период времени, мм. При наведении курсора мыши на число - период времени, за который выпало указанное количество осадков.
  • R24 - Количество осадков - Количество выпавших осадков за 24 часа, мм.
  • S - Снежный покров - Высота снежного покрова, см. При наведении курсора мыши на число - состояние снежного покрова и степень покрытия местности в баллах.